TimePST,TemperatureF,Dew PointF,Humidity,Sea Level PressureIn,VisibilityMPH,Wind Direction,Wind SpeedMPH,Gust SpeedMPH,PrecipitationIn,Events,Conditions,WindDirDegrees,DateUTC
12:15 AM,39.2,35.6,87,30.32,10.0,Calm,Calm,-,N/A,,Clear,0,2013-02-10 08:15:00
12:35 AM,37.4,35.6,93,30.32,10.0,Calm,Calm,-,N/A,,Partly Cloudy,0,2013-02-10 08:35:00
12:55 AM,37.4,33.8,87,30.32,10.0,Calm,Calm,-,N/A,,Scattered Clouds,0,2013-02-10 08:55:00
1:15 AM,37.4,35.6,93,30.32,10.0,Calm,Calm,-,N/A,,Mostly Cloudy,0,2013-02-10 09:15:00
1:35 AM,37.4,33.8,87,30.32,10.0,Calm,Calm,-,N/A,,Overcast,0,2013-02-10 09:35:00
1:55 AM,37.4,35.6,93,30.32,10.0,Calm,Calm,-,N/A,,Overcast,0,2013-02-10 09:55:00
2:15 AM,39.2,35.6,87,30.33,10.0,Calm,Calm,-,N/A,,Overcast,0,2013-02-10 10:15:00
2:35 AM,39.2,35.6,87,30.33,10.0,SE,3.5,-,N/A,,Overcast,130,2013-02-10 10:35:00
2:55 AM,37.4,35.6,93,30.33,10.0,Calm,Calm,-,N/A,,Overcast,0,2013-02-10 10:55:00
3:15 AM,39.2,35.6,87,30.33,10.0,Calm,Calm,-,N/A,,Overcast,0,2013-02-10 11:15:00
3:35 AM,39.2,35.6,87,30.33,10.0,Calm,Calm,-,N/A,,Overcast,0,2013-02-10 11:35:00
3:55 AM,39.2,35.6,87,30.33,10.0,Calm,Calm,-,N/A,,Overcast,0,2013-02-10 11:55:00
4:15 AM,39.2,35.6,87,30.33,10.0,Calm,Calm,-,N/A,,Overcast,0,2013-02-10 12:15:00
4:35 AM,37.4,35.6,93,30.33,10.0,Calm,Calm,-,N/A,,Overcast,0,2013-02-10 12:35:00
4:55 AM,37.4,33.8,87,30.33,10.0,Calm,Calm,-,N/A,,Overcast,0,2013-02-10 12:55:00
5:15 AM,37.4,33.8,87,30.34,10.0,Calm,Calm,-,N/A,,Overcast,0,2013-02-10 13:15:00
5:35 AM,37.4,33.8,87,30.34,10.0,Calm,Calm,-,N/A,,Overcast,0,2013-02-10 13:35:00
5:55 AM,35.6,33.8,93,30.34,5.0,Calm,Calm,-,N/A,,Overcast,0,2013-02-10 13:55:00
6:15 AM,35.6,33.8,93,30.34,7.0,Calm,Calm,-,N/A,,Overcast,0,2013-02-10 14:15:00
6:35 AM,35.6,33.8,93,30.34,3.0,Calm,Calm,-,N/A,,Overcast,0,2013-02-10 14:35:00
6:55 AM,33.8,30.2,87,30.35,1.2,Calm,Calm,-,N/A,,Overcast,0,2013-02-10 14:55:00
7:15 AM,33.8,32.0,93,30.35,1.8,Calm,Calm,-,N/A,,Overcast,0,2013-02-10 15:15:00
7:35 AM,35.6,33.8,93,30.36,0.2,Calm,Calm,-,N/A,,Overcast,0,2013-02-10 15:35:00
7:55 AM,35.6,33.8,93,30.36,0.2,Calm,Calm,-,N/A,,Overcast,0,2013-02-10 15:55:00
8:15 AM,35.6,33.8,93,30.37,0.2,Calm,Calm,-,N/A,,Overcast,0,2013-02-10 16:15:00
8:35 AM,37.4,33.8,87,30.37,0.2,Calm,Calm,-,N/A,,Overcast,0,2013-02-10 16:35:00
8:55 AM,37.4,35.6,93,30.37,0.5,Calm,Calm,-,N/A,,Overcast,0,2013-02-10 16:55:00
9:15 AM,37.4,35.6,93,30.37,1.5,Calm,Calm,-,N/A,,Overcast,0,2013-02-10 17:15:00
9:35 AM,37.4,35.6,93,30.37,5.0,Calm,Calm,-,N/A,,Overcast,0,2013-02-10 17:35:00
9:55 AM,39.2,37.4,93,30.37,7.0,Calm,Calm,-,N/A,,Overcast,0,2013-02-10 17:55:00
10:15 AM,39.2,35.6,87,30.37,10.0,Calm,Calm,-,N/A,,Overcast,0,2013-02-10 18:15:00
10:35 AM,42.8,37.4,81,30.37,10.0,West,3.5,-,N/A,,Overcast,270,2013-02-10 18:35:00
10:55 AM,42.8,37.4,81,30.37,10.0,West,3.5,-,N/A,,Overcast,260,2013-02-10 18:55:00
11:15 AM,42.8,37.4,81,30.37,10.0,West,3.5,-,N/A,,Overcast,260,2013-02-10 19:15:00
11:35 AM,42.8,37.4,81,30.37,10.0,WNW,3.5,-,N/A,,Overcast,290,2013-02-10 19:35:00
11:55 AM,42.8,37.4,81,30.36,10.0,Calm,Calm,-,N/A,,Overcast,0,2013-02-10 19:55:00
12:15 PM,44.6,37.4,76,30.36,10.0,WSW,4.6,-,N/A,,Overcast,250,2013-02-10 20:15:00
12:35 PM,44.6,37.4,76,30.35,10.0,Calm,Calm,-,N/A,,Overcast,0,2013-02-10 20:35:00
12:55 PM,44.6,37.4,76,30.35,10.0,Calm,Calm,-,N/A,,Overcast,0,2013-02-10 20:55:00
1:15 PM,46.4,33.8,62,30.34,10.0,NW,8.1,-,N/A,,Overcast,320,2013-02-10 21:15:00
1:35 PM,46.4,33.8,62,30.34,10.0,NNW,5.8,-,N/A,,Overcast,330,2013-02-10 21:35:00
1:55 PM,46.4,33.8,62,30.34,10.0,North,6.9,-,N/A,,Overcast,360,2013-02-10 21:55:00
2:15 PM,46.4,33.8,62,30.34,10.0,North,5.8,-,N/A,,Overcast,350,2013-02-10 22:15:00
2:35 PM,46.4,33.8,62,30.34,10.0,North,5.8,-,N/A,,Overcast,10,2013-02-10 22:35:00
2:55 PM,46.4,33.8,62,30.34,10.0,NNW,8.1,-,N/A,,Overcast,330,2013-02-10 22:55:00
3:15 PM,46.4,33.8,62,30.33,10.0,NNE,6.9,-,N/A,,Overcast,30,2013-02-10 23:15:00
3:35 PM,46.4,33.8,62,30.34,10.0,NW,3.5,-,N/A,,Overcast,320,2013-02-10 23:35:00
3:55 PM,46.4,33.8,62,30.34,10.0,NW,6.9,-,N/A,,Overcast,320,2013-02-10 23:55:00
4:15 PM,44.6,33.8,66,30.34,10.0,NW,4.6,-,N/A,,Overcast,310,2013-02-11 00:15:00
4:35 PM,46.4,33.8,62,30.34,10.0,NW,5.8,-,N/A,,Overcast,320,2013-02-11 00:35:00
4:55 PM,46.4,33.8,62,30.34,10.0,WNW,3.5,-,N/A,,Overcast,290,2013-02-11 00:55:00
5:15 PM,44.6,33.8,66,30.34,10.0,Calm,Calm,-,N/A,,Overcast,0,2013-02-11 01:15:00
5:35 PM,44.6,33.8,66,30.33,10.0,Calm,Calm,-,N/A,,Overcast,0,2013-02-11 01:35:00
5:55 PM,44.6,33.8,66,30.34,10.0,NW,3.5,-,N/A,,Overcast,310,2013-02-11 01:55:00
6:15 PM,44.6,33.8,66,30.34,10.0,NW,3.5,-,N/A,,Overcast,320,2013-02-11 02:15:00
6:35 PM,44.6,33.8,66,30.34,10.0,Calm,Calm,-,N/A,,Overcast,0,2013-02-11 02:35:00
6:55 PM,44.6,35.6,71,30.34,10.0,Calm,Calm,-,N/A,,Overcast,0,2013-02-11 02:55:00
7:15 PM,44.6,35.6,71,30.34,10.0,NW,3.5,-,N/A,,Overcast,310,2013-02-11 03:15:00
7:35 PM,44.6,35.6,71,30.34,10.0,NNW,3.5,-,N/A,,Overcast,330,2013-02-11 03:35:00
7:55 PM,44.6,35.6,71,30.34,10.0,NW,4.6,-,N/A,,Overcast,320,2013-02-11 03:55:00
8:15 PM,44.6,35.6,71,30.34,10.0,NW,3.5,-,N/A,,Overcast,320,2013-02-11 04:15:00
8:35 PM,44.6,35.6,71,30.34,10.0,Calm,Calm,-,N/A,,Overcast,0,2013-02-11 04:35:00
8:55 PM,44.6,35.6,71,30.34,10.0,Calm,Calm,-,N/A,,Overcast,0,2013-02-11 04:55:00
9:15 PM,42.8,35.6,76,30.34,10.0,North,-9999.0,-,N/A,,Overcast,0,2013-02-11 05:15:00
9:35 PM,42.8,35.6,76,30.34,10.0,Calm,Calm,-,N/A,,Overcast,0,2013-02-11 05:35:00
9:55 PM,42.8,35.6,76,30.34,10.0,Calm,Calm,-,N/A,,Overcast,0,2013-02-11 05:55:00
10:15 PM,42.8,35.6,76,30.33,10.0,Calm,Calm,-,N/A,,Overcast,0,2013-02-11 06:15:00
10:35 PM,42.8,35.6,76,30.33,10.0,Calm,Calm,-,N/A,,Overcast,0,2013-02-11 06:35:00
10:55 PM,42.8,35.6,76,30.34,10.0,NNW,3.5,-,N/A,,Overcast,330,2013-02-11 06:55:00
11:15 PM,42.8,35.6,76,30.33,10.0,Calm,Calm,-,N/A,,Overcast,0,2013-02-11 07:15:00
11:35 PM,42.8,35.6,76,30.34,10.0,North,3.5,-,N/A,,Overcast,350,2013-02-11 07:35:00
11:55 PM,42.8,35.6,76,30.34,10.0,Calm,Calm,-,N/A,,Overcast,0,2013-02-11 07:55:00